Location: Curicchi
(45.0167°N, 12.0500°E)
Time: 02:17:44
(UTC+00:00)

STARLINK-69 - Pass Details

Date: 07 June 2020
Orbit: 434 x 435 km, 53.0° (Epoch: 05 July)

Event Time Altitude Azimuth Distance (km) Brightness Sun altitude
Exits shadow 00:36:53 10° 117° (ESE) 1,560 5.9 -19.4°
Enters shadow 01:34:33 -70° 237° (WSW) 12,457 10.4 -14.7°
Maximum altitude 02:12:44 72° 145° (SE) 460 3.2 -10.5°
